Location: Herronton
(50.6333°N, 113.4167°W)
Time: 05:57:20
(UTC+00:00)

N. Korean satellite - Visible Passes

Search period start: 28 November 2021 00:00
Search period end: 08 December 2021 00:00
Orbit: 447 x 495 km, 97.3° (Epoch: 27 November)

Date Brightness Start Highest point End Pass type
(mag) Time Alt. Az. Time Alt. Az. Time Alt. Az.
28 Nov 9.9 01:06:59 10° WSW 01:08:52 14° W 01:10:45 10° WNW visible
28 Nov 8.2 12:25:16 10° NNE 12:28:23 32° E 12:31:27 10° SSE visible
28 Nov 7.7 13:58:48 10° NNW 14:01:25 21° WNW 14:04:01 10° WSW visible
29 Nov 9.0 00:37:07 10° SSW 00:40:11 26° W 00:43:15 10° NW visible
29 Nov 9.5 11:57:33 10° NE 11:59:43 16° E 12:01:51 10° SE visible
29 Nov 6.8 13:29:53 10° N 13:33:07 40° WNW 13:36:19 10° SW visible
30 Nov 7.4 00:08:06 10° S 00:11:37 55° W 00:15:06 10° NNW visible
30 Nov 6.3 13:01:17 10° NNE 13:04:43 89° ESE 13:08:06 10° SSW visible
01 Dec 10.1 01:15:39 10° WSW 01:16:44 11° W 01:17:50 10° WNW visible
01 Dec 7.8 12:32:56 10° NNE 12:36:11 39° E 12:39:22 10° S visible
01 Dec 7.9 14:06:47 10° NNW 14:09:07 17° WNW 14:11:26 10° WSW visible
02 Dec 9.4 00:45:12 10° SW 00:48:01 22° W 00:50:48 10° NW visible
02 Dec 9.2 12:05:01 10° NE 12:07:31 19° E 12:10:00 10° SE visible
02 Dec 7.0 13:37:43 10° N 13:40:50 33° WNW 13:43:54 10° SW visible
03 Dec 7.9 00:15:59 10° S 00:19:23 44° W 00:22:46 10° NNW visible
03 Dec 6.2 13:09:01 10° N 13:12:25 73° WNW 13:15:47 10° SSW visible
04 Dec 7.3 12:40:34 10° NNE 12:43:54 48° E 12:47:10 10° S visible
04 Dec 8.1 14:14:46 10° NNW 14:16:44 15° WNW 14:18:41 10° W visible
05 Dec 9.6 00:53:17 10° SW 00:55:46 18° W 00:58:14 10° NW visible
05 Dec 8.8 12:12:28 10° NE 12:15:14 23° E 12:17:59 10° SSE visible
05 Dec 7.3 13:45:31 10° N 13:48:27 27° WNW 13:51:21 10° SW visible
06 Dec 8.3 00:23:48 10° SSW 00:27:04 36° W 00:30:19 10° NNW visible
06 Dec 9.9 11:45:17 10° ENE 11:46:28 11° E 11:47:38 10° ESE visible
06 Dec 6.3 13:16:41 10° N 13:20:02 58° WNW 13:23:22 10° SSW visible
07 Dec 6.8 12:48:08 10° NNE 12:51:31 61° E 12:54:51 10° S visible
07 Dec 8.3 14:22:46 10° NW 14:24:16 12° WNW 14:25:46 10° W visible
